www.pogodaiklimat.ru

Погода и климат >> Архив погоды >> Чехия >> Прага


АРХИВ ПОГОДЫ в Праге

Время (UTC), дата Ветер
(напр.,м/с)
 
Видим.   Явления Облачность Т
(С)
Тd
(С)
f
(%)
Тe
(С)
Тes
(С)
Комфортность P
(гПа)
Po
(гПа)
Тmin
(С)
Tmax
(С)
R
(мм)
R24
(мм)
S
(см)
22 15.08 ЮЗ 6 40 км в посл. час дождь 8/0
[Ac As]
+15.4 +12.3 82 +14 +14 тепло 1015.0 972.5
23 15.08 ЮЗ 4 40 км 8/1 1500 м
[Sc Ac As]
+15.0 +12.5 85 +14 +14 по сезону 1014.9 972.3
00 16.08 ЮЗ 4 35 км {дождь} 8/0
[Ac lent Ci sp]
+14.2 +12.2 88 +13 +13 по сезону 1015.0 972.3 0.3
01 16.08 ЮЗ 5 35 км 9/4 1500 м
[Sc Ac As]
+15.0 +12.1 83 +14 +14 по сезону 1014.9 972.3
02 16.08 З 4 35 км 9/5 1260 м
[Sc Ac As]
+14.9 +12.4 85 +14 +14 по сезону 1015.4 972.8
03 16.08 З 5 35 км 9/4 1500 м
[Sc Ac As]
+14.6 +12.3 86 +13 +13 по сезону 1016.2 973.5
04 16.08 З 5 30 км 9/9 840 м
[Sc]
+14.5 +12.5 88 +13 +13 по сезону 1016.5 973.8
05 16.08 З 5 35 км 9/5 900 м
[Sc Ac As]
+14.6 +12.8 89 +13 +13 по сезону 1016.8 974.1
06 16.08 З 4 40 км 9/8 800 м
[Sc Ac As]
+15.1 +13.0 87 +14 +14 по сезону 1017.3 974.6 +14.1 0.3
07 16.08 З 4 50 км 9/4 360 м
[Cu Sc Ac As]
+15.8 +12.9 83 +15 +16 прохладно 1017.5 974.9
08 16.08 З 4 50 км 8/6 570 м
[Cu Sc Ac As Ci fib]
+17.3 +12.8 75 +17 +19 по сезону 1017.6 975.2
09 16.08 СЗ 2 10 км слаб. ливневой дождь 9/6 630 м
[Sc diur, vesp Ac cuf Ci fib]
+15.9 +13.6 86 +16 +19 прохладно 1017.9 975.3
10 16.08 ЮЗ 2 20 км в посл. час ливневой дождь 9/8 700 м
[Cb calv Ac cuf]
+18.1 +12.8 71 +19 +20 холодно 1017.3 975.1
11 16.08 ЮЗ 4 50 км в посл. час ливневой дождь 8/4 750 м
[Sc diur, vesp Ac cuf Ci ing]
+17.8 +13.9 78 +18 +21 холодно 1017.2 974.9
12 16.08 ЮЗ 4 12 км осадки на расстоянии {ливн. осадки} 8/6 700 м
[Cb calv Ac cuf Ci ing]
+19.4 +11.7 61 +21 +23 комфорт 1016.8 974.7 2
13 16.08 ЮЗ 3
{13}
30 км в посл. час ливневой дождь 9/6 900 м
[Cb calv Ac cuf]
+16.7 +12.0 74 +16 +18 холодно 1017.2 974.7
14 16.08 ЮЗ 3 60 км 9/6 1440 м
[Sc diur, vesp Ac cuf]
+18.1 +11.4 65 +18 +20 прохладно 1016.8 974.6
15 16.08 З 1
{13}
60 км {ливн. осадки} 8/3 1500 м
[Cu med, cong Ac cuf]
+20.3 +10.0 52 +23 +25 комфорт 1016.2 974.3
16 16.08 СЗ 1 70 км 5/3 1500 м
[Cu med, cong Ac cuf]
+20.7 +9.3 48 +23 +25 комфорт 1016.2 974.3
17 16.08 З 1 70 км 4/3 1500 м
[Cu med, cong Ac cuf Ci fib]
+21.0 +9.0 46 +24 +24 комфорт 1015.9 974.1
18 16.08 ЮЗ 1
{13}
70 км 5/1 1500 м
[Sc diur, vesp Ac cuf Ci fib]
+18.8 +9.6 55 +21 +21 комфорт 1016.4 974.2 +21.2 2
19 16.08 Ю 2 70 км 8/1 1500 м
[Sc diur, vesp Ac cuf Ci fib]
+16.5 +11.0 70 +17 +17 тепло 1016.9 974.4
20 16.08 Ю 2 60 км 8/0 2000 м
[Ac cuf Ci]
+15.8 +11.6 76 +16 +16 по сезону 1017.1 974.5
21 16.08 Ю 2 60 км 6/0 2000 м
[Ac cuf Ci sp]
+15.0 +11.0 77 +15 +15 по сезону 1017.0 974.3
22 16.08 Ю 3 50 км 5/0
[Ci sp]
+14.4 +11.2 81 +13 +13 по сезону 1017.1 974.3
23 16.08 Ю 3 50 км 6/3 1500 м
[Sc Ci sp]
+14.0 +11.2 83 +13 +13 по сезону 1016.9 974.1
00 17.08 Ю 3 50 км 3/0
[Ci fib]
+13.9 +10.9 82 +13 +13 по сезону 1016.6 973.8
01 17.08 Ю 3 50 км 1/0
[Ci fib]
+13.6 +11.0 84 +12 +12 по сезону 1016.2 973.3
02 17.08 Ю 3 50 км 1/0
[Ci fib]
+11.6 +10.3 92 +10 +10 прохладно 1016.6 973.4
03 17.08 Ю 3 50 км 6/0
[Ci sp]
+12.1 +10.5 90 +10 +10 прохладно 1016.2 973.1
04 17.08 Ю 3 50 км 9/0
[Ac lent Ci sp]
+12.9 +10.6 86 +11 +11 по сезону 1016.0 973.0
05 17.08 Ю 3 50 км 9/1 1500 м
[Sc Ac lent Ci sp]
+13.5 +10.9 84 +12 +12 по сезону 1015.7 972.8
06 17.08 Ю 2 35 км 9/0
[Ac lent Cs]
+14.4 +11.4 82 +14 +16 по сезону 1015.7 973.0 +11.6
07 17.08 Ю 2 35 км 9/4 1500 м
[Sc As trans]
+15.6 +12.0 79 +16 +17 прохладно 1015.6 973.1
08 17.08 Ю 3 40 км 8/1 1500 м
[Sc Ac As Ci fib]
+17.9 +11.7 67 +18 +22 по сезону 1015.1 972.9
09 17.08 Ю 3 40 км 9/0
[Ac As]
+19.6 +11.1 58 +21 +25 комфорт 1014.7 972.7
10 17.08 Ю 4 45 км 9/0
[Ac As]
+20.4 +11.1 55 +22 +26 комфорт 1014.7 972.9
11 17.08 Ю 4 45 км 9/0
[Ac As]
+21.2 +9.9 48 +23 +26 комфорт 1014.4 972.7
12 17.08 Ю 5 45 км 9/0
[Ac As]
+21.2 +10.1 49 +23 +25 комфорт 1013.8 972.1
13 17.08 Ю 4 50 км 9/0
[Ac As]
+22.4 +10.5 47 +24 +27 комфорт 1013.1 971.6
14 17.08 Ю 3 50 км 9/0
[Ac As]
+22.2 +10.5 47 +24 +27 комфорт 1013.1 971.6
15 17.08 Ю 3 60 км в посл. час дождь 9/0
[Ac As]
+23.3 +10.4 44 +25 +27 комфорт 1012.3 970.9
16 17.08 Ю 3 50 км 9/0
[Ac As]
+21.8 +10.9 50 +24 +25 комфорт 1012.4 970.8
17 17.08 Ю 4 60 км 10/0
[Ac As]
+21.1 +11.4 54 +23 +23 комфорт 1012.4 970.8
18 17.08 Ю 3 60 км {дождь} 10/0 2000 м
[Ac As Cs]
+19.9 +11.9 60 +22 +22 комфорт 1012.1 970.3 +23.4 0.0
19 17.08 ЮЗ 6 50 км 10/3 1500 м
[Sc Ac As Cs]
+19.8 +11.3 58 +21 +21 комфорт 1012.3 970.5
20 17.08 ЮЗ 4 50 км 10/3 1500 м
[Sc Ac As]
+18.9 +11.2 61 +20 +20 тепло 1012.9 970.9
21 17.08 Ю 4 50 км 10/1 1500 м
[Sc Ac lent Cs]
+18.0 +11.4 65 +18 +18 тепло 1012.5 970.4
22 17.08 Ю 4 50 км 9/0
[Ac As]
+17.7 +11.3 66 +17 +17 тепло 1012.0 969.9
23 17.08 Ю 3 50 км 9/0
[Ac As]
+17.3 +11.6 69 +17 +17 тепло 1012.5 970.3
00 18.08 Ю 2 50 км 9/1 1500 м
[Sc Ac As]
+17.1 +12.0 72 +17 +17 тепло 1012.3 970.1
01 18.08 Ю 3 50 км 9/0
[Ac As]
+17.0 +12.1 73 +17 +17 тепло 1012.4 970.2
02 18.08 Ю 2 50 км 9/0
[Ac As]
+17.0 +11.9 72 +17 +17 тепло 1012.0 969.8
03 18.08 Ю 2 50 км 9/0 2000 м
[Ac As]
+17.3 +11.8 70 +18 +18 тепло 1011.4 969.3
04 18.08 Ю 3 40 км в посл. час дождь 9/4 1500 м
[Sc Ac As]
+16.8 +12.9 78 +17 +17 тепло 1011.5 969.3
05 18.08 Ю 3 40 км 9/3 1500 м
[Sc Ac As]
+17.5 +13.6 78 +18 +18 тепло 1011.1 969.0
06 18.08 Ю 2 40 км {дождь} 9/3 1440 м
[Sc Ac As]
+18.0 +13.8 76 +19 +19 тепло 1010.9 968.9 +16.7 0.0
07 18.08 ЮВ 3 50 км 9/3 1500 м
[Sc Ac As]
+18.4 +13.7 74 +19 +20 по сезону 1010.6 968.7
08 18.08 Ю 3 60 км 5/4 1500 м
[Sc Ac As]
+20.5 +14.5 68 +23 +27 комфорт 1010.4 968.8
09 18.08 Ю 5 70 км 1/1 1300 м
[Cu Sc Ac lent]
+24.2 +13.4 51 +26 +32 жарко 1009.3 968.2
10 18.08 ЮЗ 8
{11}
>70 км 1/1 1500 м
[Cu Sc Ac lent]
+26.7 +14.0 46 +29 +31 жарко 1008.9 968.2
11 18.08 ЮЗ 8
{12}
>70 км 1/1 1500 м
[Cu hum]
+28.5 +15.1 44 +31 +33 душно 1008.4 968.0
12 18.08 ЮЗ 8
{12}
>70 км 3/3 1500 м
[Cu hum]
+28.8 +14.6 42 +31 +33 жарко 1008.3 967.9
13 18.08 ЮЗ 10
{11}
>70 км 4/4 1500 м
[Cu hum]
+30.1 +14.6 39 +32 +33 жарко 1008.1 967.9
14 18.08 ЮЗ 6
{12}
>70 км 3/3 1500 м
[Cu hum]
+30.1 +14.6 39 +32 +35 жарко 1008.0 967.8
15 18.08 ЮЗ 7
{12}
>70 км 1/1 1500 м
[Cu hum]
+30.6 +14.3 37 +32 +34 жарко 1007.7 967.6
16 18.08 ЮЗ 7 >70 км 1/1 1500 м
[Cu hum]
+30.5 +13.8 36 +32 +33 жарко 1007.7 967.5
17 18.08 ЮЗ 6 >70 км 1/1 1500 м
[Cu hum]
+29.5 +13.7 38 +31 +31 жарко 1007.8 967.5
18 18.08 Ю 3
{12}
>70 км 4/1 2000 м
[Sc diur, vesp Ac und]
+26.4 +14.2 47 +29 +29 жарко 1007.6 966.9 +30.8
19 18.08 Ю 2 70 км 5/0
[Ac cuf Ci ing]
+24.8 +13.9 51 +27 +27 жарко 1008.2 967.3
20 18.08 Ю 4 60 км зарница 6/0
[Ac cuf Ci ing]
+22.9 +14.7 60 +27 +27 душно 1008.6 967.4
21 18.08 З 6
{20}
40 км гроза без осадков {ливн. осадки} 9/3 1200 м
[Cb cap Ac cuf Ci ing]
+22.4 +13.2 56 +25 +25 комфорт 1010.1 968.8
22 18.08 З 7
{15}
40 км в посл. час гроза 9/3 1200 м
[Cu med, cong Ac cuf]
+22.8 +13.6 56 +26 +26 жарко 1010.7 969.4
23 18.08 СЗ 3 40 км зарница {ливн. осадки} 8/3 1500 м
[Sc diur, vesp Ac cuf Ci ing]
+19.3 +14.6 74 +21 +21 комфорт 1011.0 969.2
00 19.08 ЮЗ 3
{20}
20 км гроза, ливневой дождь 9/4 1200 м
[Cb cap Ac cuf]
+19.1 +16.0 82 +21 +21 комфорт 1011.8 970.0 0.7
01 19.08 ЮЗ 1
{12}
20 км гроза, ливневой дождь 9/4 1200 м
[Cb cap Ac cuf]
+17.9 +17.3 96 +19 +19 тепло 1012.8 970.8
02 19.08 ЮВ 2 30 км в посл. час гроза {ливн. осадки} 9/0
[Ac cuf Ci ing]
+17.6 +16.3 92 +18 +18 тепло 1012.7 970.6
03 19.08 З 5
{12}
30 км в посл. час ливневой дождь {гроза} 9/4 1500 м
[Cu med, cong Ac cuf]
+18.4 +16.0 86 +19 +19 тепло 1013.6 971.6
04 19.08 ЮЗ 4 20 км в посл. час ливневой дождь 9/3 1500 м
[Cu med, cong Ac cuf]
+18.2 +16.2 88 +18 +18 тепло 1014.5 972.4
05 19.08 З 3 15 км слаб. дождь 10/4 1000 м
[Sc Ac As]
+17.7 +16.0 90 +18 +18 тепло 1014.6 972.5
06 19.08 З 2
{12}
25 км слаб. дождь {гроза} 10/4 400 м
[Sc Ac As]
+17.7 +16.0 90 +18 +19 тепло 1015.2 973.0 +17.6 9
07 19.08 ЮЗ 4 35 км слаб. дождь 10/4 300 м
[Sc Ac As]
+17.7 +16.0 90 +17 +18 по сезону 1015.7 973.5
08 19.08 ЮЗ 5 30 км в посл. час дождь 9/3 300 м
[Frnb Ac As]
+18.1 +15.9 87 +18 +19 по сезону 1015.9 973.8
09 19.08 ЮЗ 5 15 км слаб. дождь 9/5 450 м
[Sc Ac As]
+18.0 +16.3 90 +18 +19 по сезону 1017.0 974.8
10 19.08 ЮЗ 4 35 км слаб. дождь 9/6 300 м
[Sc Ac As]
+18.2 +16.6 90 +18 +20 холодно 1017.2 975.0
11 19.08 ЮЗ 6 40 км в посл. час дождь 8/5 400 м
[Cu med, cong Ac trans Ci sp]
+20.2 +17.8 86 +23 +25 комфорт 1017.1 975.2
12 19.08 ЮЗ 7 40 км {дождь} 8/5 540 м
[Sc diur, vesp Ac lent Ci sp]
+20.5 +17.1 81 +24 +25 комфорт 1017.1 975.3 0.9
13 19.08 ЮЗ 6 45 км 9/6 700 м
[Sc diur, vesp Ac lent]
+20.7 +16.3 76 +24 +25 комфорт 1017.5 975.7
14 19.08 ЮЗ 6 40 км 8/5 700 м
[Sc diur, vesp Ac lent Ci sp]
+21.4 +16.8 75 +25 +26 комфорт 1017.5 975.8
15 19.08 З 5 20 км осадки на расстоянии 9/6 750 м
[Sc diur, vesp Ac lent Ci sp]
+21.5 +16.2 72 +25 +26 комфорт 1017.4 975.7
16 19.08 С 2 45 км 9/6 800 м
[Sc diur, vesp Ac cuf Ci sp]
+19.5 +16.4 82 +22 +23 комфорт 1018.0 976.0
17 19.08 С 3 20 км осадки на расстоянии 9/3 600 м
[Sc diur, vesp Ac cuf Ci sp]
+19.8 +15.9 78 +22 +23 комфорт 1017.9 975.9
18 19.08 СВ 1 35 км 9/1 1200 м
[Sc diur, vesp Ac cuf Ci sp]
+19.3 +16.2 82 +22 +22 комфорт 1018.4 976.3 +22.2 0.9
19 19.08 В 1 40 км 6/0
[Ac lent Ci sp]
+17.8 +15.6 87 +19 +19 тепло 1019.0 976.7
20 19.08 В 2 40 км 5/0
[Ac lent Ci sp]
+17.5 +15.8 90 +18 +18 тепло 1019.4 977.0
21 19.08 В 1 30 км 4/0
[Ac lent Ci sp]
+17.1 +15.6 91 +18 +18 тепло 1019.8 977.4
22 19.08 ЮЗ 1 20 км 5/1 1500 м
[Sc Ac lent Ci sp]
+15.3 +14.5 95 +16 +16 тепло 1020.1 977.4
23 19.08 ЮВ 1 20 км 8/0
[Ac As Ci sp]
+16.0 +15.5 97 +17 +17 тепло 1020.0 977.4
00 20.08 ЮЗ 1 12 км 9/0
[Ac As]
+15.7 +15.1 96 +16 +16 тепло 1020.2 977.5
01 20.08 ЮВ 1 12 км 9/0
[Ac As]
+16.4 +15.8 96 +17 +17 тепло 1019.7 977.2
02 20.08 СЗ 2 5000 м дымка 9/4 60 м
[St Ac As]
+16.0 +15.4 96 +16 +16 тепло 1020.3 977.7
03 20.08 С 1 1200 м дымка 9/4 30 м
[St Ac As]
+16.0 +15.5 97 +17 +17 тепло 1020.4 977.8
04 20.08 СВ 1 3000 м дымка 9/9 60 м
[Sc]
+15.8 +15.5 98 +16 +16 тепло 1020.8 978.1
05 20.08 Ю 2 4500 м дымка 9/4 1500 м
[Sc Ac As]
+16.3 +16.0 98 +16 +16 тепло 1020.5 977.9
06 20.08 З 3 5000 м слаб. дождь 10/6 240 м
[Frnb Ac As]
+16.7 +16.1 96 +16 +17 по сезону 1021.3 978.7 +15.2 0.2
07 20.08 СЗ 1 6000 м в посл. час дождь 9/6 120 м
[St Ac As]
+17.7 +16.6 93 +19 +20 по сезону 1020.9 978.5
08 20.08 С 4 8000 м дымка 9/6 180 м
[St Ac As]
+18.2 +16.8 92 +18 +19 по сезону 1020.8 978.5
09 20.08 СЗ 2 12 км {дождь} 9/5 570 м
[St Ac As]
+20.1 +17.1 83 +24 +26 комфорт 1020.8 978.8
10 20.08 В 3 20 км 8/4 450 м
[Cu Sc Ac As]
+21.5 +17.7 79 +26 +29 душно 1020.1 978.3
11 20.08 СВ 3 30 км 9/5 540 м
[Cu med, cong Ac As]
+22.4 +17.4 73 +27 +30 душно 1020.0 978.3
12 20.08 СВ 2 12 км {дождь} 9/5 600 м
[Cb cap Ac cuf]
+22.4 +16.7 70 +27 +30 душно 1019.4 977.7 0.1
13 20.08 СЗ 4 10 км слаб. ливневой дождь 10/5 750 м
[Cu Sc Ac As]
+20.1 +18.2 89 +23 +24 комфорт 1019.7 977.7
14 20.08 СЗ 3 12 км слаб. дождь 10/3 1350 м
[Sc As op]
+19.2 +17.9 92 +21 +22 комфорт 1020.0 977.9
15 20.08 СЗ 3 13 км слаб. дождь 10/1 1380 м
[Sc As op]
+18.8 +17.0 89 +20 +21 по сезону 1020.0 977.8
16 20.08 С 2 18 км в посл. час дождь 10/1 300 м
[St Ac As]
+19.0 +16.6 86 +21 +22 комфорт 1019.8 977.6
17 20.08 СЗ 4 6000 м слаб. дождь 10/4 120 м
[Frnb As op]
+18.4 +17.6 95 +19 +19 по сезону 1020.0 977.8
18 20.08 СЗ 5 4000 м дождь {ливн. осадки} 10/8 120 м
[Sc As op]
+17.6 +17.0 96 +17 +17 прохладно 1020.4 978.0 +22.9 6
19 20.08 СЗ 8 5000 м дождь 10/9 90 м
[Sc As op]
+16.1 +15.5 96 +14 +14 по сезону 1020.9 978.3
20 20.08 СЗ 6 20 км в посл. час дождь 10/4 1200 м
[Sc Ac As]
+15.4 +13.6 89 +14 +14 по сезону 1022.0 979.2
21 20.08 СЗ 5 20 км слаб. дождь 10/10 1380 м
[Sc]
+15.4 +13.2 87 +14 +14 прохладно 1022.3 979.5
22 20.08 З 6 20 км в посл. час дождь 10/10 1000 м
[Sc]
+14.8 +12.7 87 +13 +13 тепло 1023.7 980.7
23 20.08 СЗ 6
{11}
15 км слаб. дождь 10/10 270 м
[Sc]
+13.7 +12.4 92 +11 +11 по сезону 1024.4 981.2
00 21.08 СЗ 5
{11}
20 км слаб. дождь 10/10 1500 м
[Sc]
+13.9 +12.1 89 +12 +12 по сезону 1024.4 981.2 8
01 21.08 З 4 15 км слаб. дождь 10/0
[As op]
+13.6 +12.2 91 +12 +12 по сезону 1025.9 982.6
02 21.08 З 3 20 км слаб. дождь 10/3 1300 м
[Sc As op]
+13.4 +12.3 93 +12 +12 по сезону 1026.3 983.0
03 21.08 З 4 25 км слаб. дождь 10/9 1500 м
[Sc As op]
+13.4 +12.1 92 +12 +12 по сезону 1026.6 983.3
04 21.08 З 3 40 км в посл. час дождь 10/1 1500 м
[Sc As op]
+13.4 +12.0 91 +12 +12 по сезону 1027.0 983.7
05 21.08 З 3 45 км 10/9 1500 м
[Sc Ac As]
+13.6 +12.0 90 +12 +12 по сезону 1027.9 984.5
06 21.08 З 3 50 км {дождь} 9/0 2000 м
[Ac As]
+14.1 +12.4 89 +13 +14 по сезону 1028.2 984.9 +13.3 11
07 21.08 З 2 50 км 9/6 1500 м
[Sc Ac As]
+15.0 +12.8 87 +15 +16 прохладно 1028.6 985.4
08 21.08 СЗ 2 50 км 8/1 450 м
[Cu med, cong Ac As]
+16.0 +12.4 79 +16 +19 по сезону 1028.4 985.4
09 21.08 СЗ 2 50 км 4/3 630 м
[Cu med, cong Ac trans]
+17.0 +11.0 68 +17 +24 по сезону 1028.3 985.4
10 21.08 С 3 50 км 5/4 960 м
[Cu med, cong Ac trans]
+18.8 +10.2 57 +20 +25 прохладно 1028.0 985.4
11 21.08 СЗ 2 50 км 5/4 1260 м
[Cu med, cong Ac cuf Ci fib]
+19.2 +9.3 53 +21 +28 комфорт 1027.7 985.1
12 21.08 С 1 55 км 8/4 1380 м
[Cu med, cong Ci sp]
+20.6 +8.5 46 +23 +31 комфорт 1027.5 985.1
13 21.08 СЗ 2 60 км 8/5 1500 м
[Cu med, cong Ac cuf Ci sp]
+20.9 +8.8 46 +23 +27 комфорт 1027.1 984.8
14 21.08 С 3 60 км 6/3 1440 м
[Cu med, cong Ac cuf Ci sp]
+20.2 +9.5 50 +22 +25 комфорт 1027.1 984.7
15 21.08 С 2 60 км 4/1 1500 м
[Cu med, cong Ac cuf Ci sp]
+20.8 +7.8 43 +23 +26 комфорт 1027.0 984.7
16 21.08 С 2 70 км 1/1 1500 м
[Cu med, cong Ac cuf Ci fib]
+20.5 +8.1 45 +22 +24 комфорт 1027.1 984.7
17 21.08 С 1 65 км 4/1 1500 м
[Cu med, cong Ac cuf Ci fib]
+20.4 +7.0 42 +23 +23 комфорт 1027.0 984.6
18 21.08 С 1 60 км 3/1 1500 м
[Cu med, cong Ci fib]
+19.0 +7.1 46 +21 +21 комфорт 1027.1 984.5 +21.3
19 21.08 В 2 60 км 3/1 1500 м
[Sc diur, vesp Ci fib]
+16.8 +9.2 61 +17 +17 тепло 1027.9 985.0
20 21.08 ЮВ 1 55 км 1/0
[Ci fib]
+17.0 +9.4 61 +18 +18 тепло 1028.2 985.3
21 21.08 Ю 1 55 км 1/0
[Ci fib]
+14.7 +10.1 74 +15 +15 по сезону 1028.5 985.3
22 21.08 СЗ 1 55 км 4/0
[Ci]
+14.2 +9.8 75 +15 +15 тепло 1028.6 985.3
23 21.08 ЮЗ 1 50 км 6/0
[Ci]
+12.4 +9.5 82 +12 +12 по сезону 1029.2 985.6
00 22.08 СЗ 1 40 км 8/0
[Ci sp]
+13.0 +9.9 81 +13 +13 по сезону 1028.6 985.1
01 22.08 35 км 9/0
[Cs]
+12.4 +9.6 83 1028.5 984.9
02 22.08 35 км 9/0
[Cs]
+12.4 +9.6 83 1028.3 984.7
03 22.08 нст 1 30 км 9/0
[Cs]
+11.5 +9.1 85 +11 +11 по сезону 1028.3 984.6
04 22.08 СЗ 2 18 км 8/0
[Ci sp]
+11.4 +9.1 86 +10 +10 по сезону 1028.5 984.8
05 22.08 СЗ 2 12 км 6/0
[Ci sp]
+11.1 +9.7 91 +10 +10 по сезону 1028.8 985.0
06 22.08 С 2 20 км 6/0
[Ci sp]
+11.9 +10.3 90 +11 +12 прохладно 1028.8 985.1 +10.9
07 22.08 СВ 4 30 км 4/0
[Ci sp]
+15.5 +12.4 82 +15 +17 по сезону 1027.9 984.8
08 22.08 В 5 35 км 4/1 480 м
[Cu hum Ci fib]
+16.6 +12.5 77 +16 +19 по сезону 1027.8 984.9
09 22.08 В 5 40 км 4/3 700 м
[Cu hum Ci fib]
+18.1 +11.8 67 +18 +22 по сезону 1027.4 984.7
10 22.08 СВ 5 40 км 5/3 800 м
[Cu med, cong Ci fib]
+19.2 +11.9 63 +20 +24 прохладно 1027.0 984.5
11 22.08 СВ 4 45 км 5/4 960 м
[Cu med, cong Ci fib]
+20.2 +12.3 60 +22 +27 комфорт 1026.2 983.9
12 22.08 В 2 45 км 6/5 1140 м
[Cu med, cong Ci fib]
+20.7 +12.2 58 +24 +30 комфорт 1026.1 983.8
13 22.08 В 5 50 км 6/4 1200 м
[Cu med, cong Ci sp]
+21.6 +12.0 54 +24 +27 комфорт 1025.5 983.4
14 22.08 В 4 50 км 5/3 1440 м
[Cu med, cong Ci sp]
+22.1 +10.9 49 +24 +28 комфорт 1024.9 982.9
15 22.08 В 3 60 км 5/3 1440 м
[Cu med, cong Ci sp]
+22.0 +11.3 51 +24 +27 комфорт 1024.8 982.8
16 22.08 В 3 60 км 3/1 1350 м
[Cu med, cong Ci sp]
+21.5 +11.1 52 +23 +25 комфорт 1024.7 982.6
17 22.08 В 4 70 км 1/1 1350 м
[Sc diur, vesp Ci fib]
+20.8 +11.2 54 +23 +23 комфорт 1024.7 982.5
18 22.08 В 3 70 км 1/1 1500 м
[Sc diur, vesp Ci fib]
+18.4 +11.5 64 +19 +19 тепло 1025.3 982.7 +22.4
19 22.08 ЮВ 3 60 км 1/1 1500 м
[Sc diur, vesp Ci fib]
+17.2 +11.3 68 +17 +17 тепло 1026.1 983.3
20 22.08 ЮВ 1 50 км ясно +17.5 +11.4 67 +19 +19 тепло 1026.4 983.7
21 22.08 В 2 50 км 1/1 1470 м
[Sc]
+16.7 +11.5 71 +17 +17 тепло 1026.7 983.8

 

Местоположение метеостанции Прага (Чехия): широта 50.10 долгота 14.25 высота над уровнем моря 365 м.

В архиве по умолчанию представлена погода в Праге за последнюю неделю. Архивные данные за месяц целиком и за предыдущие месяцы, начиная с января 2011 года, Вы можете получить, выбрав интересующий диапазон дат из раскрывающегося списка и нажав кнопку "Ввод!".


*Определитесь, кто Вы:
робот инопланетянин человек

Внимание! Время в таблицах - всемирное. Для получения местного времени необходимо прибавить поправку, которая равна 1 ч.

Смотрите также архив погоды в соседних городах и на ближайших метеорологических станциях:

Погода в Праге-Либус (Чехия) (17 км)
Погода в Прага аэропорту (Чехия) (20 км)
Погода в Докшанах (Чехия) (42 км)
Погода в Милешовке (Чехия) (55 км)
Погода в Усти-над-Лабем (Чехия) (66 км)
Погода в Пльзень-Микулке (Чехия) (72 км)
Погода в Тушимице (Чехия) (72 км)
Погода в Коцеловице (Чехия) (76 км)
Погода в Циннвальд-Георгенфельде (Германия) (79 км)
Погода в Чаславе (Чехия) (83 км)

Пояснения к столбцам:

Ветер - указаны скорость ветра в м/с - средняя за 10 мин, порывы в срок и между сроками (в фигурных скобках) и направление, откуда дует ветер: С - северный, СВ - северо-восточный, В - восточный, ЮВ - юго-восточный, Ю - южный, ЮЗ - юго-западный, З - западный, СЗ - северо-западный.
Видимость - горизонтальная дальность видимости в метрах или километрах. При видимости от 1 до 10 км при отсутствии осадков обычно наблюдается дымка, при ухудшении видимости до 1 км и менее - туман. В сухую погоду видимость может ухудшаться дымом, пылью или мглою.
Явления - указаны атмосферные явления, наблюдавшиеся в срок или в последний час перед сроком; фигурными скобками обозначены явления, наблюдавшиеся между сроками (за 1-3 часа до срока); квадратными скобками обозначены град или гололедные отложения с указанием их диаметра в мм.
Облачность - указаны через наклонную черту общая и нижняя облачность в баллах и высота нижней границы облаков в метрах; квадратными скобками обозначены формы облаков: Ci - перистые, Cs - перисто-слоистые, Cc - перисто-кучевые, Ac - высококучевые, As - высокослоистые, Sc - слоисто-кучевые, Ns - слоисто-дождевые, Cu - кучевые, Cb - кучево-дождевые. Подробнее классификацию облаков см. в Атласе облаков (PDF).
T - Температура воздуха - температура, измеренная на высоте 2 м над землей.
Td - Температура точки росы - температура, при понижении до которой содержащийся в воздухе водяной пар достигнет насыщения.
f - Относительная влажность воздуха - влажноcть воздуха, измеренная на высоте 2 м над землей.
Te - Эффективная температура - температура, которую ощущает одетый по сезону человек в тени. Характеристика душности погоды. При расчете учитывается влияние влажности воздуха и скорости ветра на теплоощущения человека.
Tes - Эффективная температура на солнце - температура, которую ощущает человек, с поправкой на солнечный нагрев. Характеристика знойности погоды. Зависит от высоты солнца над горизонтом, облачности и скорости ветра. Ночью, в пасмурную погоду, а также при ветре 12 м/с и более поправка равна нулю.
P - Атмосферное давление - приведенное к уровню моря атмосферное давление.
Po - Атмосферное давление - измеренное на уровне метеостанции атмосферное давление.
Tmin - Минимальная температура - минимум температуры воздуха на высоте 2 м над землей.
Tmax - Максимальная температура - максимум температуры воздуха на высоте 2 м над землей.
R - Количество осадков - Количество выпавших осадков за период времени, мм. При наведении курсора мыши на число - период времени, за который выпало указанное количество осадков.
R24 - Количество осадков - Количество выпавших осадков за 24 часа, мм.
S - Снежный покров - Высота снежного покрова, см. При наведении курсора мыши на число - состояние снежного покрова и степень покрытия местности в баллах.